Location: Unspecified
(34.0819°N, 0.0000°E)
Time: 14:26:43
(UTC+00:00)

CSL-04 Deb - Visible Passes

Search period start: 04 April 2026 00:00
Search period end: 14 April 2026 00:00
Orbit: 678 x 816 km, 98.6° (Epoch: 29 March)

Date Brightness Start Highest point End Pass type
(mag) Time Alt. Az. Time Alt. Az. Time Alt. Az.
4 Apr ? 20:47:26 17° NNE 20:47:26 17° NNE 20:48:40 10° N visible
5 Apr ? 21:44:37 16° NNW 21:44:37 16° NNW 21:45:35 10° NNW visible
6 Apr ? 21:01:59 20° N 21:01:59 20° N 21:03:28 10° N visible
7 Apr ? 20:19:21 13° NE 20:19:21 13° NE 20:20:10 10° NNE visible
7 Apr ? 21:59:10 14° NNW 21:59:10 14° NNW 21:59:57 10° NNW visible
8 Apr ? 21:16:32 22° N 21:16:32 22° N 21:18:09 10° N visible
9 Apr ? 20:33:53 17° NNE 20:33:53 17° NNE 20:35:20 10° NNE visible
9 Apr ? 22:13:41 12° NW 22:13:41 12° NW 22:14:10 10° NW visible
10 Apr ? 21:31:03 22° NNW 21:31:03 22° NNW 21:32:42 10° NNW visible
11 Apr ? 20:48:25 21° NNE 20:48:25 21° NNE 20:50:16 10° N visible
12 Apr ? 20:05:46 11° NE 20:05:46 11° NE 20:06:06 10° NE visible
12 Apr ? 21:45:34 21° NNW 21:45:34 21° NNW 21:47:10 10° NNW visible
13 Apr ? 21:02:55 25° NNE 21:02:55 25° NNE 21:05:03 10° N visible
